Regional Weather Roundup
Issued by NWS

Home | Current Version | Previous Version | Graphics & Text | Print | Product List | Glossary On
Versions: 1 2 3 4 5 6 7 8 9 10 11 12 13 14 15 16 17 18 19 20 21 22 23 24 25 26 27 28 29 30 31 32 33 34 35 36 37 38 39 40 41 42 43 44 45 46 47 48 49 50
000
ASUS45 KBOU 251507
RWRCO

WEATHER ROUNDUP FOR COLORADO
NATIONAL WEATHER SERVICE DENVER/BOULDER CO
900 AM MDT TUE APR 25 2017

NOTE: "FAIR" INDICATES FEW OR NO CLOUDS BELOW 12000 FEET WITH NO
SIGNIFICANT WEATHER AND/OR OBSTRUCTIONS TO VISIBILITY.

COZ001>005-013-030-031-251600-
...NORTHWEST COLORADO...

CITY           SKY/WX    TMP DP  RH WIND       PRES   REMARKS
CRAIG          CLOUDY    35  32  88 CALM      29.71S
HAYDEN         CLOUDY    36  28  75 SE3       29.71S
MEEKER         CLOUDY    40  36  86 CALM      29.71R
MOUNT WERNER   NOT AVBL
STEAMBOAT SPGS CLOUDY    34  31  90 CALM      29.70S
WALDEN           N/A     30  23  74 S8        29.69S WCI  23
$$

COZ006>008-011-251600-
...WEST CENTRAL VALLEYS...

CITY           SKY/WX    TMP DP  RH WIND       PRES   REMARKS
GRAND JUNCTION PTSUNNY   49  38  65 S7        29.68S
MONTROSE       PTSUNNY   46  34  62 SE9       29.70S
EAGLE          PTSUNNY   39  34  81 CALM      29.72S
RIFLE          CLOUDY    43  38  82 CALM      29.70S
DELTA          PTSUNNY   51  33  52 SE3       29.69S
NUCLA          CLOUDY    45  32  61 E10       29.73S
$$

COZ017>023-064>068-251600-
...SOUTHWEST COLORADO...

CITY           SKY/WX    TMP DP  RH WIND       PRES   REMARKS
DURANGO        CLOUDY    43  32  65 SW9       29.69S
CORTEZ         LGT RAIN  42  37  82 W5        29.73S
PAGOSA SPRINGS MIX PCPN  38  36  94 SW5       29.73R
TELLURIDE      SNOW      31  31 100 NW8G18    29.75F VSB 1/4 WCI  23
WOLF CREEK PAS HVY SNOW  23  23 100 SW20G26   29.80R VSB<1/4 WCI   8
$$

COZ009-010-012-014-032>034-037-058>063-251600-
...CENTRAL COLORADO...

CITY           SKY/WX    TMP DP  RH WIND       PRES   REMARKS
ASPEN          PTSUNNY   33  30  88 CALM      29.69S
BUENA VISTA    FAIR      40  27  60 CALM      29.66S
COPPER MTN     CLOUDY    25  18  74 MISG      29.71S
BERTHOUD PASS  CLOUDY    14   3  62 N24G38    29.67R WCI  -5
COTTONWOOD PAS FAIR      36  18  48 NW6       29.69R
GUNNISON       PTSUNNY   35  30  82 SW6       29.71F WCI  30
KREMMLING      PTSUNNY   41  30  65 W5        29.71S
LEADVILLE      PTSUNNY   28  17  63 NW8G17    29.69R WCI  20
MONARCH PASS   CLOUDY    21  19  93 W24       29.82S WCI   4
SALIDA         FAIR      46  28  50 SW12G17   29.72F
SUNLIGHT       FLURRIES  23  21  93 MISG      29.78R
WILKERSON PASS FAIR      23  16  74 SW12G18   29.71S WCI  12
$$

COZ069>075-251600-
...SAN LUIS VALLEY/SANGRE DE CRISTO MOUNTAINS...

CITY           SKY/WX    TMP DP  RH WIND       PRES   REMARKS
ALAMOSA        CLOUDY    44  25  47 N10       29.65F
LA VETA PASS   FAIR      39  23  52 MISG      29.80S
SAGUACHE       CLOUDY    39  23  52 NW12      29.69S
$$

COZ035-036-038>040-251600-
...NORTHERN COLORADO FRONT RANGE...

CITY           SKY/WX    TMP DP  RH WIND       PRES   REMARKS
DENVER INTL AP PTSUNNY   52  21  29 W20       29.55R
DMNS CITY PARK   N/A     50  19  29 NW3G12    29.57S
AURORA         MOSUNNY   50  24  36 W12G17    29.58R
FRONT RANGE AP PTSUNNY   50  30  46 W14G22    29.57R
ERIE MUNI ARPT FAIR      51  28  40 N3        29.55R
BOULDER MUN AP FAIR      50  30  46 E3        29.55R
CENTENNIAL     PTSUNNY   47  30  51 VRB6      29.58R
BROOMFIELD     PTSUNNY   50  25  37 W13G23    29.56S
FORT COLLINS   FAIR      47  42  83 E12       29.57R
LONGMONT       FAIR      50  42  74 NE7       29.58R
$$

COZ041-046-047-076>085-087-088-251600-
...PIKES PEAK/PALMER DIVIDE AND SOUTHERN FOOTHILLS...

CITY           SKY/WX    TMP DP  RH WIND       PRES   REMARKS
COLO. SPRINGS  PTSUNNY   47  32  56 SW12      29.60S
A. F. ACADEMY  FAIR      48  17  29 CALM      29.58F
SCHRIEVER AFB  FAIR      46  33  60 SE7       29.60R
ELLICOTT       NOT AVBL
FALCON         FAIR      47  20  33 W9        29.61S
FORT CARSON    FAIR      46  37  70 SE10      29.58S
LIMON          FAIR      44  39  82 E5        29.59R
MONUMENT HILL  FAIR      41  30  65 MISG      29.61S
TRINIDAD       FAIR      47  37  68 S3        29.60F
$$

COZ042>045-048>051-090-091-251600-
...NORTHEAST COLORADO...

CITY           SKY/WX    TMP DP  RH WIND       PRES   REMARKS
GREELEY ARPT   PTSUNNY   46  43  89 NE5       29.58R
AKRON          FAIR      47  41  80 E3        29.56F
BURLINGTON     NOT AVBL
WRAY           NOT AVBL
STERLING       PTSUNNY   48  43  81 CALM      29.55S
HOLYOKE        CLOUDY    48  45  87 NE9       29.56S
FORT MORGAN    CLOUDY    46  45  95 W5        29.57S
$$

COZ086-089-092>099-251600-
...SOUTHEAST COLORADO...

CITY           SKY/WX    TMP DP  RH WIND       PRES   REMARKS
PUEBLO         FAIR      51  40  65 SE10      29.58S
LA JUNTA       FAIR      51  40  65 E15       29.57R
LAMAR          CLOUDY    51  41  68 NE17      29.55R
SPRINGFIELD      N/A     49  42  77 N17       29.55S
$$



USA.gov is the U.S. government's official web portal to all federal, state and local government web resources and services.